Miscellaneous Local Product
Issued by NWS Hastings, NE

Home | Current Version | Previous Version | Graphics & Text | Print | Product List | Glossary On
Versions: 1 2 3 4 5 6 7 8 9 10 11 12 13 14 15 16 17 18 19 20 21 22 23 24 25 26 27 28 29 30 31 32 33 34 35 36 37 38 39 40 41 42 43 44 45 46 47 48 49 50
000
AXUS43 KGID 230702
MISGRI

GID CWA HOURLY WEATHER ROUNDUP
NATIONAL WEATHER SERVICE HASTINGS NE
200 AM CDT WED JUL 23 2014

NOTE: "FAIR" INDICATES FEW OR NO CLOUDS BELOW 12,000 FEET WITH NO
SIGNIFICANT WEATHER AND/OR OBSTRUCTIONS TO VISIBILITY.

...SOUTH CENTRAL NEBRASKA...

CITY           SKY/WX    TMP DP  RH WIND       PRES   REMARKS
GRAND ISLAND   CLEAR     68  65  90 NE5       30.25R
HASTINGS       CLEAR     69  64  84 N5        30.24R
KEARNEY        CLEAR     68  64  88 N6        30.26S
ORD            PTCLDY    64  62  93 NW3       30.27R
YORK           CLEAR     68  68 100 NE7       30.23R
AURORA         CLEAR     69  69  98 NE6       30.24R
LEXINGTON      PTCLDY    70  67  91 NE6       30.27S
HOLDREGE       PTCLDY    70  67  91 NE8       30.24F
HEBRON         PTCLDY    74  68  80 NE3       30.20S

...NEBRASKA PANHANDLE...

CITY           SKY/WX    TMP DP  RH WIND       PRES   REMARKS
CHADRON        CLEAR     70  63  78 E10       30.27F
ALLIANCE       PTCLDY    70  61  73 SE21G26   30.29F
SCOTTSBLUFF    CLEAR     73  62  68 SE15      30.31R
SIDNEY         CLEAR     71  60  68 SE14G21   30.34R

...WESTERN AND NORTH CENTRAL NEBRASKA...

CITY           SKY/WX    TMP DP  RH WIND       PRES   REMARKS
VALENTINE      CLOUDY    71  62  73 NE6       30.28F
AINSWORTH      CLOUDY    66  63  90 CALM      30.30F
ONEILL         CLOUDY    66  60  79 N6        30.29R
BROKEN BOW     PTCLDY    66  63  90 N6        30.30R
IMPERIAL       CLEAR     72  64  76 E8        30.30S
NORTH PLATTE   MOCLDY    67  63  87 NE5       30.31R
MCCOOK         CLEAR     72  68  87 E13       30.26S

...EASTERN NEBRASKA...

CITY           SKY/WX    TMP DP  RH WIND       PRES   REMARKS
NORFOLK        PTCLDY    69  59  70 NE8       30.24R
SO SIOUX CITY  CLEAR     66  59  78 N6        30.22R
TEKAMAH        CLEAR     66  62  87 N8        30.21R
COLUMBUS       PTCLDY    66  59  77 NE6       30.24R
ALBION         PTCLDY    67  62  81 N3        30.26S
OMAHA EPPLEY   PTCLDY    69  63  81 N7        30.19R
OFFUTT AFB     CLEAR     72  64  75 NE6       30.18R
MILLARD        CLEAR     74  63  68 N3        30.18F
LINCOLN        CLEAR     71  65  81 N12       30.20R
NEBRASKA CITY  CLEAR     70  65  84 NE7       30.17R
BEATRICE       CLEAR     67  66  95 CALM      30.18S
FALLS CITY     CLEAR     73  68  84 N5        30.14S

...NORTHERN KANSAS...

CITY           SKY/WX    TMP DP  RH WIND       PRES   REMARKS
GOODLAND       CLEAR     72  68  87 E10       30.29R
HILL CITY      CLEAR     76  68  76 NE9       30.22R
NORTON         SUNNY     73  64  73 NE10      30.24R
PHILLIPSBURG   CLEAR     75  68  78 NE10      30.22R
SMITH CENTER   CLEAR     73  66  78 NE12      30.21R
HAYS           PTCLDY    77  66  69 NE12      30.19R
RUSSELL        PTCLDY    79  72  79 NE12      30.17R
CONCORDIA      CLEAR     76  69  79 NE8       30.18R
SALINA         PTCLDY    84  75  74 NE13      30.14R HX  92
TOPEKA         CLOUDY    82  74  76 NE7       30.11R



USA.gov is the U.S. government's official web portal to all federal, state and local government web resources and services.